| time (UTC) | temp C | wind direction | speed KPH | gust KPH | rain 1hr cm | rain 24hr cm | rain mn cm | humidity % | barometer mb |
| 20260905224500 | 33 | 0 | 0.0 | 8.0 | 0.00 | 0.00 | 0.00 | 53 | 1009.8 |
| 20260905224000 | 33 | 22 | 8.0 | 8.0 | 0.00 | 0.00 | 0.00 | 53 | 1010.2 |
| 20260905223500 | 33 | 157 | 1.6 | 8.0 | 0.00 | 0.00 | 0.00 | 54 | 1009.8 |
| 20260905223000 | 33 | 67 | 3.2 | 9.7 | 0.00 | 0.00 | 0.00 | 52 | 1010.2 |
| 20260905222500 | 33 | 22 | 4.8 | 11.3 | 0.00 | 0.00 | 0.00 | 52 | 1010.2 |
| 20260905222000 | 33 | 22 | 8.0 | 11.3 | 0.00 | 0.00 | 0.00 | 52 | 1010.2 |
| 20260905221500 | 33 | 0 | 0.0 | 0.0 | 0.00 | 0.00 | 0.00 | 56 | 1010.2 |
| 20260905221000 | 33 | 0 | 0.0 | 0.0 | 0.00 | 0.00 | 0.00 | 54 | 1010.2 |
| 20260905220500 | 33 | 0 | 0.0 | 0.0 | 0.00 | 0.00 | 0.00 | 55 | 1010.2 |
| 20260905220000 | 33 | 0 | 0.0 | 3.2 | 0.00 | 0.00 | 0.00 | 54 | 1010.2 |
| 20260905215500 | 33 | 0 | 0.0 | 8.0 | 0.00 | 0.00 | 0.00 | 51 | 1010.2 |
| 20260905215000 | 33 | 0 | 0.0 | 9.7 | 0.00 | 0.00 | 0.00 | 49 | 1010.2 |
| 20260905214500 | 34 | 292 | 9.7 | 9.7 | 0.00 | 0.00 | 0.00 | 48 | 1010.2 |
| 20260905214000 | 34 | 0 | 0.0 | 9.7 | 0.00 | 0.00 | 0.00 | 49 | 1010.5 |
| 20260905213500 | 33 | 67 | 6.4 | 11.3 | 0.00 | 0.00 | 0.00 | 48 | 1010.5 |
| 20260905213000 | 33 | 292 | 8.0 | 11.3 | 0.00 | 0.00 | 0.00 | 48 | 1010.5 |
| 20260905212500 | 33 | 225 | 1.6 | 11.3 | 0.00 | 0.00 | 0.00 | 48 | 1010.5 |
| 20260905212000 | 34 | 0 | 0.0 | 11.3 | 0.00 | 0.00 | 0.00 | 48 | 1010.5 |
| 20260905211500 | 34 | 292 | 3.2 | 8.0 | 0.00 | 0.00 | 0.00 | 47 | 1010.5 |
| 20260905211000 | 34 | 292 | 6.4 | 9.7 | 0.00 | 0.00 | 0.00 | 48 | 1010.5 |
| 20260905210500 | 34 | 292 | 1.6 | 11.3 | 0.00 | 0.00 | 0.00 | 46 | 1010.8 |
| 20260905210000 | 34 | 292 | 9.7 | 11.3 | 0.00 | 0.00 | 0.00 | 47 | 1010.8 |
| 20260905205500 | 34 | 292 | 8.0 | 11.3 | 0.00 | 0.00 | 0.00 | 46 | 1010.8 |
| 20260905205000 | 34 | 292 | 4.8 | 9.7 | 0.00 | 0.00 | 0.00 | 47 | 1010.8 |
| 20260905204500 | 33 | 292 | 9.7 | 12.9 | 0.00 | 0.00 | 0.00 | 48 | 1010.8 |
| 20260905204000 | 34 | 22 | 1.6 | 12.9 | 0.00 | 0.00 | 0.00 | 48 | 1010.8 |
| 20260905203500 | 34 | 292 | 3.2 | 11.3 | 0.00 | 0.00 | 0.00 | 49 | 1010.8 |
| 20260905203000 | 33 | 0 | 0.0 | 14.5 | 0.00 | 0.00 | 0.00 | 48 | 1011.2 |
| 20260905202500 | 34 | 22 | 6.4 | 14.5 | 0.00 | 0.00 | 0.00 | 48 | 1011.2 |
| 20260905202000 | 34 | 67 | 4.8 | 14.5 | 0.00 | 0.00 | 0.00 | 47 | 1011.2 |
| 20260905201500 | 34 | 22 | 14.5 | 14.5 | 0.00 | 0.00 | 0.00 | 47 | 1011.2 |
| 20260905201000 | 34 | 225 | 12.9 | 14.5 | 0.00 | 0.00 | 0.00 | 48 | 1011.2 |
| 20260905200500 | 34 | 180 | 3.2 | 16.1 | 0.00 | 0.00 | 0.00 | 50 | 1011.5 |
| 20260905200000 | 35 | 180 | 4.8 | 16.1 | 0.00 | 0.00 | 0.00 | 50 | 1011.5 |
| 20260905195500 | 35 | 292 | 4.8 | 11.3 | 0.00 | 0.00 | 0.00 | 50 | 1011.5 |
| 20260905195000 | 34 | 225 | 3.2 | 17.7 | 0.00 | 0.00 | 0.00 | 50 | 1011.5 |
| 20260905194500 | 35 | 67 | 6.4 | 17.7 | 0.00 | 0.00 | 0.00 | 48 | 1011.5 |
| 20260905194000 | 35 | 67 | 3.2 | 14.5 | 0.00 | 0.00 | 0.00 | 48 | 1011.9 |
| 20260905193500 | 35 | 270 | 4.8 | 14.5 | 0.00 | 0.00 | 0.00 | 47 | 1011.9 |
| 20260905193000 | 35 | 225 | 1.6 | 11.3 | 0.00 | 0.00 | 0.00 | 48 | 1011.9 |
| 20260905192500 | 35 | 247 | 4.8 | 9.7 | 0.00 | 0.00 | 0.00 | 48 | 1011.9 |
| 20260905192000 | 35 | 225 | 3.2 | 14.5 | 0.00 | 0.00 | 0.00 | 48 | 1011.9 |
| 20260905191500 | 35 | 247 | 1.6 | 14.5 | 0.00 | 0.00 | 0.00 | 48 | 1012.2 |
| 20260905191000 | 35 | 180 | 3.2 | 11.3 | 0.00 | 0.00 | 0.00 | 49 | 1012.2 |
| 20260905190500 | 35 | 112 | 1.6 | 11.3 | 0.00 | 0.00 | 0.00 | 49 | 1012.2 |
| 20260905190000 | 34 | 292 | 6.4 | 12.9 | 0.00 | 0.00 | 0.00 | 49 | 1012.2 |
| 20260905185500 | 35 | 22 | 11.3 | 12.9 | 0.00 | 0.00 | 0.00 | 48 | 1012.5 |
| 20260905185000 | 35 | 22 | 9.7 | 12.9 | 0.00 | 0.00 | 0.00 | 46 | 1012.5 |
| 20260905184500 | 36 | 22 | 8.0 | 11.3 | 0.00 | 0.00 | 0.00 | 47 | 1012.5 |
| 20260905184000 | 36 | 180 | 6.4 | 12.9 | 0.00 | 0.00 | 0.00 | 47 | 1012.9 |
| 20260905183500 | 36 | 247 | 3.2 | 12.9 | 0.00 | 0.00 | 0.00 | 48 | 1012.9 |
| 20260905183000 | 36 | 0 | 0.0 | 11.3 | 0.00 | 0.00 | 0.00 | 48 | 1012.9 |
| 20260905182500 | 35 | 247 | 4.8 | 11.3 | 0.00 | 0.00 | 0.00 | 50 | 1012.9 |
| 20260905182000 | 35 | 247 | 3.2 | 11.3 | 0.00 | 0.00 | 0.00 | 49 | 1012.9 |
| 20260905181500 | 35 | 157 | 1.6 | 12.9 | 0.00 | 0.00 | 0.00 | 51 | 1012.9 |
| 20260905181000 | 35 | 22 | 1.6 | 12.9 | 0.00 | 0.00 | 0.00 | 51 | 1013.2 |
| 20260905180500 | 35 | 67 | 3.2 | 11.3 | 0.00 | 0.00 | 0.00 | 49 | 1013.2 |
| 20260905180000 | 35 | 180 | 1.6 | 17.7 | 0.00 | 0.00 | 0.00 | 50 | 1013.2 |
| 20260905175500 | 35 | 225 | 4.8 | 17.7 | 0.00 | 0.00 | 0.00 | 51 | 1013.2 |
| 20260905175000 | 35 | 157 | 1.6 | 12.9 | 0.00 | 0.00 | 0.00 | 50 | 1013.2 |
| 20260905174500 | 34 | 292 | 6.4 | 12.9 | 0.00 | 0.00 | 0.00 | 50 | 1013.2 |
| 20260905174000 | 35 | 112 | 8.0 | 11.3 | 0.00 | 0.00 | 0.00 | 50 | 1013.5 |
| 20260905173500 | 35 | 112 | 6.4 | 9.7 | 0.00 | 0.00 | 0.00 | 50 | 1013.5 |
| 20260905173000 | 35 | 180 | 4.8 | 14.5 | 0.00 | 0.00 | 0.00 | 51 | 1013.5 |
| 20260905172500 | 34 | 270 | 4.8 | 14.5 | 0.00 | 0.00 | 0.00 | 52 | 1013.5 |
| 20260905172000 | 33 | 0 | 0.0 | 9.7 | 0.00 | 0.00 | 0.00 | 52 | 1013.5 |
| 20260905171500 | 33 | 112 | 4.8 | 9.7 | 0.00 | 0.00 | 0.00 | 52 | 1013.5 |
| 20260905171000 | 34 | 112 | 3.2 | 8.0 | 0.00 | 0.00 | 0.00 | 53 | 1013.9 |
| 20260905170500 | 34 | 180 | 6.4 | 11.3 | 0.00 | 0.00 | 0.00 | 56 | 1013.5 |
| 20260905170000 | 33 | 225 | 3.2 | 11.3 | 0.00 | 0.00 | 0.00 | 55 | 1013.9 |
| 20260905165500 | 33 | 225 | 6.4 | 11.3 | 0.00 | 0.00 | 0.00 | 56 | 1013.9 |
| 20260905165000 | 33 | 180 | 4.8 | 11.3 | 0.00 | 0.00 | 0.00 | 56 | 1014.2 |
| 20260905164500 | 33 | 180 | 6.4 | 11.3 | 0.00 | 0.00 | 0.00 | 60 | 1014.2 |
| 20260905164000 | 32 | 180 | 3.2 | 11.3 | 0.00 | 0.00 | 0.00 | 56 | 1014.2 |
| 20260905163500 | 32 | 112 | 6.4 | 11.3 | 0.00 | 0.00 | 0.00 | 56 | 1014.2 |
| 20260905163000 | 32 | 0 | 0.0 | 11.3 | 0.00 | 0.00 | 0.00 | 58 | 1014.2 |
| 20260905162500 | 32 | 180 | 4.8 | 11.3 | 0.00 | 0.00 | 0.00 | 60 | 1014.2 |
| 20260905162000 | 32 | 112 | 4.8 | 9.7 | 0.00 | 0.00 | 0.00 | 59 | 1014.2 |
| 20260905161500 | 32 | 157 | 3.2 | 9.7 | 0.00 | 0.00 | 0.00 | 61 | 1014.2 |
| 20260905161000 | 31 | 292 | 4.8 | 11.3 | 0.00 | 0.00 | 0.00 | 61 | 1014.2 |
| 20260905160500 | 31 | 22 | 4.8 | 11.3 | 0.00 | 0.00 | 0.00 | 64 | 1014.2 |
| 20260905160000 | 31 | 225 | 3.2 | 12.9 | 0.00 | 0.00 | 0.00 | 65 | 1014.2 |
| 20260905155500 | 30 | 67 | 8.0 | 12.9 | 0.00 | 0.00 | 0.00 | 63 | 1014.2 |
| 20260905155000 | 30 | 112 | 4.8 | 11.3 | 0.00 | 0.00 | 0.00 | 64 | 1014.2 |
| 20260905154500 | 30 | 112 | 1.6 | 12.9 | 0.00 | 0.00 | 0.00 | 64 | 1014.2 |
| 20260905154000 | 30 | 157 | 4.8 | 12.9 | 0.00 | 0.00 | 0.00 | 64 | 1014.2 |
| 20260905153500 | 30 | 112 | 3.2 | 9.7 | 0.00 | 0.00 | 0.00 | 66 | 1014.2 |
| 20260905153000 | 30 | 225 | 3.2 | 8.0 | 0.00 | 0.00 | 0.00 | 70 | 1014.6 |
| 20260905152500 | 30 | 157 | 4.8 | 8.0 | 0.00 | 0.00 | 0.00 | 70 | 1014.2 |
| 20260905152000 | 29 | 112 | 4.8 | 12.9 | 0.00 | 0.00 | 0.00 | 72 | 1014.2 |
| 20260905151500 | 28 | 112 | 4.8 | 12.9 | 0.00 | 0.00 | 0.00 | 73 | 1014.2 |
| 20260905151000 | 28 | 67 | 6.4 | 14.5 | 0.00 | 0.00 | 0.00 | 74 | 1014.6 |
| 20260905150500 | 28 | 67 | 3.2 | 14.5 | 0.00 | 0.00 | 0.00 | 75 | 1014.2 |
| 20260905150000 | 28 | 112 | 9.7 | 11.3 | 0.00 | 0.00 | 0.00 | 74 | 1014.2 |
| 20260905145500 | 28 | 112 | 9.7 | 11.3 | 0.00 | 0.00 | 0.00 | 76 | 1014.2 |
| 20260905145000 | 27 | 112 | 6.4 | 14.5 | 0.00 | 0.00 | 0.00 | 77 | 1014.2 |
| 20260905144500 | 27 | 112 | 4.8 | 14.5 | 0.00 | 0.00 | 0.00 | 77 | 1014.2 |
| 20260905144000 | 27 | 247 | 9.7 | 12.9 | 0.00 | 0.00 | 0.00 | 79 | 1014.6 |
| 20260905143500 | 27 | 157 | 4.8 | 9.7 | 0.00 | 0.00 | 0.00 | 80 | 1014.2 |
| 20260905143000 | 27 | 67 | 9.7 | 16.1 | 0.00 | 0.00 | 0.00 | 80 | 1014.6 |
| 20260905142500 | 26 | 292 | 4.8 | 16.1 | 0.00 | 0.00 | 0.00 | 79 | 1014.2 |
| 20260905142000 | 26 | 22 | 8.0 | 11.3 | 0.00 | 0.00 | 0.00 | 79 | 1014.2 |
| 20260905141500 | 26 | 112 | 6.4 | 8.0 | 0.00 | 0.00 | 0.00 | 78 | 1014.2 |
| 20260905141000 | 26 | 112 | 3.2 | 8.0 | 0.00 | 0.00 | 0.00 | 79 | 1014.2 |
| 20260905140500 | 26 | 112 | 4.8 | 8.0 | 0.00 | 0.00 | 0.00 | 79 | 1014.2 |
| 20260905140000 | 27 | 22 | 8.0 | 8.0 | 0.00 | 0.00 | 0.00 | 76 | 1014.2 |
| 20260905135500 | 26 | 22 | 8.0 | 11.3 | 0.00 | 0.00 | 0.00 | 76 | 1014.2 |
| 20260905135000 | 26 | 67 | 3.2 | 16.1 | 0.00 | 0.00 | 0.00 | 76 | 1014.2 |
| 20260905134500 | 26 | 112 | 6.4 | 16.1 | 0.00 | 0.00 | 0.00 | 77 | 1014.2 |
| 20260905134000 | 26 | 22 | 4.8 | 11.3 | 0.00 | 0.00 | 0.00 | 78 | 1014.2 |
| 20260905133500 | 26 | 337 | 6.4 | 12.9 | 0.00 | 0.00 | 0.00 | 79 | 1014.2 |
| 20260905133000 | 26 | 67 | 4.8 | 12.9 | 0.00 | 0.00 | 0.00 | 79 | 1014.2 |
| 20260905132500 | 26 | 22 | 3.2 | 11.3 | 0.00 | 0.00 | 0.00 | 81 | 1014.2 |
| 20260905132000 | 26 | 22 | 4.8 | 11.3 | 0.00 | 0.00 | 0.00 | 80 | 1014.2 |
| 20260905131500 | 25 | 22 | 4.8 | 8.0 | 0.00 | 0.00 | 0.00 | 82 | 1014.2 |
| 20260905131000 | 25 | 157 | 3.2 | 8.0 | 0.00 | 0.00 | 0.00 | 83 | 1014.2 |
| 20260905130500 | 25 | 67 | 1.6 | 4.8 | 0.00 | 0.00 | 0.00 | 83 | 1014.2 |
| 20260905130000 | 26 | 292 | 3.2 | 6.4 | 0.00 | 0.00 | 0.00 | 81 | 1014.2 |
| 20260905125500 | 26 | 22 | 3.2 | 6.4 | 0.00 | 0.00 | 0.00 | 81 | 1014.2 |
| 20260905125000 | 26 | 22 | 4.8 | 6.4 | 0.00 | 0.00 | 0.00 | 81 | 1014.2 |
| 20260905124500 | 26 | 67 | 3.2 | 8.0 | 0.00 | 0.00 | 0.00 | 81 | 1014.2 |
| 20260905124000 | 26 | 22 | 6.4 | 8.0 | 0.00 | 0.00 | 0.00 | 81 | 1014.2 |
| 20260905123500 | 25 | 292 | 4.8 | 9.7 | 0.00 | 0.00 | 0.00 | 81 | 1014.2 |
| 20260905123000 | 25 | 22 | 6.4 | 9.7 | 0.00 | 0.00 | 0.00 | 82 | 1014.2 |
| 20260905122500 | 25 | 22 | 6.4 | 9.7 | 0.00 | 0.00 | 0.00 | 83 | 1013.9 |
| 20260905122000 | 25 | 22 | 8.0 | 9.7 | 0.00 | 0.00 | 0.00 | 84 | 1013.9 |
| 20260905121500 | 25 | 22 | 6.4 | 6.4 | 0.00 | 0.00 | 0.00 | 85 | 1014.2 |
| 20260905121000 | 25 | 22 | 4.8 | 6.4 | 0.00 | 0.00 | 0.00 | 85 | 1013.9 |
| 20260905120500 | 25 | 292 | 3.2 | 6.4 | 0.00 | 0.00 | 0.00 | 85 | 1013.9 |
| 20260905120000 | 25 | 292 | 4.8 | 4.8 | 0.00 | 0.00 | 0.00 | 85 | 1013.9 |
| 20260905115500 | 25 | 0 | 0.0 | 3.2 | 0.00 | 0.00 | 0.00 | 85 | 1013.9 |
| 20260905115000 | 25 | 0 | 0.0 | 3.2 | 0.00 | 0.00 | 0.00 | 82 | 1013.9 |
| 20260905113500 | 25 | 67 | 3.2 | 3.2 | 0.00 | 0.00 | 0.00 | 82 | 1013.5 |
| 20260905113000 | 25 | 0 | 0.0 | 3.2 | 0.00 | 0.00 | 0.00 | 82 | 1013.5 |
| 20260905112500 | 25 | 67 | 1.6 | 3.2 | 0.00 | 0.00 | 0.00 | 82 | 1013.5 |
| 20260905112000 | 25 | 0 | 0.0 | 3.2 | 0.00 | 0.00 | 0.00 | 82 | 1013.2 |
| 20260905111500 | 25 | 0 | 0.0 | 3.2 | 0.00 | 0.00 | 0.00 | 82 | 1013.2 |
| 20260905111000 | 25 | 67 | 1.6 | 3.2 | 0.00 | 0.00 | 0.00 | 82 | 1013.2 |
| 20260905110500 | 25 | 0 | 0.0 | 3.2 | 0.00 | 0.00 | 0.00 | 82 | 1013.2 |
| 20260905110000 | 25 | 0 | 0.0 | 1.6 | 0.00 | 0.00 | 0.00 | 82 | 1012.9 |
| 20260905105500 | 25 | 0 | 0.0 | 3.2 | 0.00 | 0.00 | 0.00 | 81 | 1013.2 |
| 20260905105000 | 25 | 0 | 0.0 | 4.8 | 0.00 | 0.00 | 0.00 | 81 | 1012.9 |
| 20260905104500 | 25 | 22 | 1.6 | 4.8 | 0.00 | 0.00 | 0.00 | 81 | 1012.9 |
| 20260905104000 | 25 | 22 | 3.2 | 4.8 | 0.00 | 0.00 | 0.00 | 81 | 1012.9 |
| 20260905103500 | 25 | 0 | 0.0 | 0.0 | 0.00 | 0.00 | 0.00 | 80 | 1012.9 |
| 20260905103000 | 25 | 0 | 0.0 | 0.0 | 0.00 | 0.00 | 0.00 | 79 | 1012.9 |
| 20260905102500 | 25 | 0 | 0.0 | 0.0 | 0.00 | 0.00 | 0.00 | 79 | 1012.9 |
| 20260905102000 | 26 | 0 | 0.0 | 0.0 | 0.00 | 0.00 | 0.00 | 79 | 1012.9 |
| 20260905101500 | 26 | 0 | 0.0 | 1.6 | 0.00 | 0.00 | 0.00 | 79 | 1013.2 |
| 20260905101000 | 26 | 0 | 0.0 | 3.2 | 0.00 | 0.00 | 0.00 | 78 | 1012.9 |
| 20260905100500 | 26 | 67 | 1.6 | 3.2 | 0.00 | 0.00 | 0.00 | 78 | 1012.9 |
| 20260905100000 | 26 | 67 | 3.2 | 3.2 | 0.00 | 0.00 | 0.00 | 78 | 1012.9 |
| 20260905095500 | 26 | 0 | 0.0 | 4.8 | 0.00 | 0.00 | 0.00 | 77 | 1012.9 |
| 20260905095000 | 26 | 22 | 4.8 | 6.4 | 0.00 | 0.00 | 0.00 | 77 | 1012.9 |
| 20260905094500 | 26 | 22 | 3.2 | 6.4 | 0.00 | 0.00 | 0.00 | 76 | 1012.5 |
| 20260905094000 | 26 | 67 | 3.2 | 8.0 | 0.00 | 0.00 | 0.00 | 76 | 1012.5 |
| 20260905093500 | 26 | 22 | 3.2 | 8.0 | 0.00 | 0.00 | 0.00 | 76 | 1012.5 |
| 20260905093000 | 26 | 292 | 3.2 | 8.0 | 0.00 | 0.00 | 0.00 | 76 | 1012.5 |
| 20260905092500 | 26 | 67 | 4.8 | 8.0 | 0.00 | 0.00 | 0.00 | 76 | 1012.5 |
| 20260905092000 | 26 | 292 | 6.4 | 9.7 | 0.00 | 0.00 | 0.00 | 76 | 1012.5 |
| 20260905091500 | 26 | 22 | 4.8 | 9.7 | 0.00 | 0.00 | 0.00 | 77 | 1012.5 |
| 20260905091000 | 26 | 292 | 8.0 | 8.0 | 0.00 | 0.00 | 0.00 | 78 | 1012.5 |
| 20260905090500 | 26 | 67 | 3.2 | 6.4 | 0.00 | 0.00 | 0.00 | 79 | 1012.2 |
| 20260905090000 | 26 | 22 | 3.2 | 6.4 | 0.00 | 0.00 | 0.00 | 80 | 1012.5 |
| 20260905085500 | 26 | 0 | 0.0 | 3.2 | 0.00 | 0.00 | 0.00 | 81 | 1012.5 |
| 20260905085000 | 26 | 0 | 0.0 | 0.0 | 0.00 | 0.00 | 0.00 | 81 | 1012.5 |
| 20260905084500 | 26 | 0 | 0.0 | 0.0 | 0.00 | 0.00 | 0.00 | 81 | 1012.5 |
| 20260905084000 | 26 | 0 | 0.0 | 3.2 | 0.00 | 0.00 | 0.00 | 81 | 1012.2 |
| 20260905083500 | 26 | 0 | 0.0 | 4.8 | 0.00 | 0.00 | 0.00 | 81 | 1012.5 |
| 20260905083000 | 26 | 180 | 1.6 | 4.8 | 0.00 | 0.00 | 0.00 | 82 | 1012.5 |
| 20260905082500 | 26 | 180 | 3.2 | 6.4 | 0.00 | 0.00 | 0.00 | 82 | 1012.5 |
| 20260905082000 | 26 | 180 | 3.2 | 6.4 | 0.00 | 0.00 | 0.00 | 82 | 1012.5 |
| 20260905081500 | 26 | 0 | 0.0 | 3.2 | 0.00 | 0.00 | 0.00 | 82 | 1012.5 |
| 20260905081000 | 26 | 180 | 1.6 | 4.8 | 0.00 | 0.00 | 0.00 | 82 | 1012.5 |
| 20260905080500 | 26 | 180 | 3.2 | 4.8 | 0.00 | 0.00 | 0.00 | 83 | 1012.5 |
| 20260905080000 | 25 | 0 | 0.0 | 3.2 | 0.00 | 0.00 | 0.00 | 83 | 1012.5 |
| 20260905075500 | 25 | 0 | 0.0 | 3.2 | 0.00 | 0.00 | 0.00 | 83 | 1012.5 |
| 20260905075000 | 25 | 0 | 0.0 | 3.2 | 0.00 | 0.00 | 0.00 | 83 | 1012.5 |
| 20260905074500 | 25 | 0 | 0.0 | 3.2 | 0.00 | 0.00 | 0.00 | 84 | 1012.5 |
| 20260905074000 | 25 | 0 | 0.0 | 3.2 | 0.00 | 0.00 | 0.00 | 85 | 1012.5 |
| 20260905073500 | 25 | 180 | 1.6 | 3.2 | 0.00 | 0.00 | 0.00 | 85 | 1012.5 |
| 20260905073000 | 25 | 0 | 0.0 | 6.4 | 0.00 | 0.00 | 0.00 | 85 | 1012.5 |
| 20260905072500 | 25 | 0 | 0.0 | 6.4 | 0.00 | 0.00 | 0.00 | 85 | 1012.5 |
| 20260905072000 | 25 | 202 | 1.6 | 1.6 | 0.00 | 0.00 | 0.00 | 84 | 1012.5 |
| 20260905071500 | 26 | 0 | 0.0 | 0.0 | 0.00 | 0.00 | 0.00 | 83 | 1012.5 |
| 20260905071000 | 26 | 0 | 0.0 | 0.0 | 0.00 | 0.00 | 0.00 | 83 | 1012.9 |
| 20260905070500 | 26 | 0 | 0.0 | 0.0 | 0.00 | 0.00 | 0.00 | 83 | 1012.9 |
| 20260905070000 | 26 | 0 | 0.0 | 0.0 | 0.00 | 0.00 | 0.00 | 83 | 1012.9 |
| 20260905065500 | 26 | 0 | 0.0 | 0.0 | 0.00 | 0.00 | 0.00 | 84 | 1012.9 |
| 20260905065000 | 26 | 0 | 0.0 | 0.0 | 0.00 | 0.00 | 0.00 | 84 | 1012.9 |
| 20260905064500 | 26 | 0 | 0.0 | 1.6 | 0.00 | 0.00 | 0.00 | 85 | 1012.9 |
| 20260905064000 | 26 | 0 | 0.0 | 1.6 | 0.00 | 0.00 | 0.00 | 85 | 1012.9 |
| 20260905063500 | 26 | 0 | 0.0 | 0.0 | 0.00 | 0.00 | 0.00 | 86 | 1012.9 |
| 20260905063000 | 26 | 0 | 0.0 | 3.2 | 0.00 | 0.00 | 0.00 | 86 | 1013.2 |
| 20260905062500 | 26 | 0 | 0.0 | 3.2 | 0.00 | 0.00 | 0.00 | 86 | 1013.2 |
| 20260905062000 | 26 | 157 | 1.6 | 3.2 | 0.00 | 0.00 | 0.00 | 85 | 1013.2 |
| 20260905061500 | 26 | 0 | 0.0 | 3.2 | 0.00 | 0.00 | 0.00 | 85 | 1013.2 |
| 20260905061000 | 26 | 0 | 0.0 | 4.8 | 0.00 | 0.00 | 0.00 | 85 | 1013.2 |
| 20260905060500 | 26 | 0 | 0.0 | 4.8 | 0.00 | 0.00 | 0.00 | 85 | 1013.2 |
| 20260905060000 | 26 | 22 | 1.6 | 1.6 | 0.00 | 0.00 | 0.00 | 84 | 1013.2 |
| 20260905055500 | 26 | 0 | 0.0 | 0.0 | 0.00 | 0.00 | 0.00 | 84 | 1013.2 |
| 20260905055000 | 26 | 0 | 0.0 | 1.6 | 0.00 | 0.00 | 0.00 | 83 | 1013.2 |
| 20260905054500 | 26 | 0 | 0.0 | 3.2 | 0.00 | 0.00 | 0.00 | 83 | 1013.2 |
| 20260905054000 | 26 | 0 | 0.0 | 3.2 | 0.00 | 0.00 | 0.00 | 83 | 1013.2 |
| 20260905053500 | 26 | 0 | 0.0 | 0.0 | 0.00 | 0.00 | 0.00 | 82 | 1013.2 |
| 20260905053000 | 26 | 0 | 0.0 | 0.0 | 0.00 | 0.00 | 0.00 | 81 | 1013.2 |
| 20260905052500 | 26 | 0 | 0.0 | 0.0 | 0.00 | 0.00 | 0.00 | 81 | 1013.2 |
| 20260905052000 | 26 | 0 | 0.0 | 0.0 | 0.00 | 0.00 | 0.00 | 81 | 1013.2 |
| 20260905051500 | 27 | 0 | 0.0 | 0.0 | 0.00 | 0.00 | 0.00 | 80 | 1013.2 |
| 20260905051000 | 26 | 0 | 0.0 | 0.0 | 0.00 | 0.00 | 0.00 | 79 | 1013.2 |
| 20260905050500 | 27 | 0 | 0.0 | 0.0 | 0.00 | 0.00 | 0.00 | 79 | 1013.2 |
| 20260905050000 | 27 | 0 | 0.0 | 0.0 | 0.00 | 0.00 | 0.00 | 80 | 1013.2 |
| 20260905045500 | 27 | 0 | 0.0 | 0.0 | 0.00 | 0.00 | 0.00 | 80 | 1013.2 |
| 20260905045000 | 27 | 0 | 0.0 | 0.0 | 0.00 | 0.00 | 0.00 | 80 | 1013.2 |
| 20260905044502 | 27 | 0 | 0.0 | 0.0 | 0.00 | 0.00 | 0.00 | 81 | 1013.2 |
| 20260905044000 | 27 | 0 | 0.0 | 0.0 | 0.00 | 0.00 | 0.00 | 81 | 1013.2 |
| 20260905043500 | 27 | 0 | 0.0 | 0.0 | 0.00 | 0.00 | 0.00 | 80 | 1013.2 |
| 20260905043000 | 27 | 0 | 0.0 | 0.0 | 0.00 | 0.00 | 0.00 | 80 | 1013.2 |
| 20260905042500 | 27 | 0 | 0.0 | 0.0 | 0.00 | 0.00 | 0.00 | 81 | 1013.5 |
| 20260905042000 | 27 | 0 | 0.0 | 0.0 | 0.00 | 0.00 | 0.00 | 81 | 1013.2 |
| 20260905041500 | 27 | 0 | 0.0 | 0.0 | 0.00 | 0.00 | 0.00 | 82 | 1013.2 |
| 20260905041000 | 27 | 0 | 0.0 | 0.0 | 0.00 | 0.00 | 0.00 | 82 | 1013.5 |
| 20260905040500 | 26 | 0 | 0.0 | 0.0 | 0.00 | 0.00 | 0.00 | 82 | 1013.5 |
| 20260905040000 | 26 | 0 | 0.0 | 0.0 | 0.00 | 0.00 | 0.00 | 82 | 1013.5 |
| 20260905035500 | 26 | 0 | 0.0 | 0.0 | 0.00 | 0.00 | 0.00 | 81 | 1013.5 |
| 20260905035000 | 26 | 0 | 0.0 | 1.6 | 0.00 | 0.00 | 0.00 | 81 | 1013.5 |
| 20260905034500 | 26 | 0 | 0.0 | 1.6 | 0.00 | 0.00 | 0.00 | 80 | 1013.5 |
| 20260905034000 | 27 | 180 | 1.6 | 1.6 | 0.00 | 0.00 | 0.00 | 80 | 1013.5 |
| 20260905033500 | 27 | 0 | 0.0 | 8.0 | 0.00 | 0.00 | 0.00 | 79 | 1013.5 |
| 20260905033000 | 27 | 157 | 1.6 | 8.0 | 0.00 | 0.00 | 0.00 | 79 | 1013.5 |
| 20260905032500 | 27 | 180 | 8.0 | 8.0 | 0.00 | 0.00 | 0.00 | 77 | 1013.9 |
| 20260905032000 | 27 | 0 | 0.0 | 0.0 | 0.00 | 0.00 | 0.00 | 76 | 1013.5 |
| 20260905031500 | 27 | 0 | 0.0 | 0.0 | 0.00 | 0.00 | 0.00 | 77 | 1013.5 |
| 20260905031000 | 27 | 0 | 0.0 | 0.0 | 0.00 | 0.00 | 0.00 | 77 | 1013.5 |
| 20260905030500 | 27 | 0 | 0.0 | 0.0 | 0.00 | 0.00 | 0.00 | 74 | 1013.5 |
| 20260905030000 | 27 | 0 | 0.0 | 0.0 | 0.00 | 0.00 | 0.00 | 73 | 1013.5 |
| 20260905025500 | 27 | 0 | 0.0 | 0.0 | 0.00 | 0.00 | 0.00 | 74 | 1013.5 |
| 20260905025000 | 27 | 0 | 0.0 | 0.0 | 0.00 | 0.00 | 0.00 | 74 | 1013.5 |
| 20260905024500 | 27 | 0 | 0.0 | 0.0 | 0.00 | 0.00 | 0.00 | 74 | 1013.5 |
| 20260905024000 | 27 | 0 | 0.0 | 0.0 | 0.00 | 0.00 | 0.00 | 74 | 1013.5 |
| 20260905023500 | 27 | 0 | 0.0 | 0.0 | 0.00 | 0.00 | 0.00 | 74 | 1013.5 |
| 20260905023000 | 28 | 0 | 0.0 | 0.0 | 0.00 | 0.00 | 0.00 | 74 | 1013.5 |
| 20260905022500 | 28 | 0 | 0.0 | 0.0 | 0.00 | 0.00 | 0.00 | 75 | 1013.5 |
| 20260905022000 | 28 | 0 | 0.0 | 0.0 | 0.00 | 0.00 | 0.00 | 74 | 1013.5 |
| 20260905021500 | 28 | 0 | 0.0 | 3.2 | 0.00 | 0.00 | 0.00 | 74 | 1013.5 |
| 20260905021000 | 28 | 0 | 0.0 | 3.2 | 0.00 | 0.00 | 0.00 | 74 | 1013.5 |
| 20260905020500 | 28 | 22 | 1.6 | 3.2 | 0.00 | 0.00 | 0.00 | 73 | 1013.2 |
| 20260905020000 | 28 | 0 | 0.0 | 0.0 | 0.00 | 0.00 | 0.00 | 73 | 1013.2 |
| 20260905015500 | 28 | 0 | 0.0 | 0.0 | 0.00 | 0.00 | 0.00 | 72 | 1013.2 |
| 20260905015000 | 28 | 0 | 0.0 | 0.0 | 0.00 | 0.00 | 0.00 | 73 | 1013.2 |
| 20260905014500 | 28 | 0 | 0.0 | 0.0 | 0.00 | 0.00 | 0.00 | 73 | 1013.2 |
| 20260905014000 | 28 | 0 | 0.0 | 0.0 | 0.00 | 0.00 | 0.00 | 73 | 1013.2 |
| 20260905013500 | 28 | 0 | 0.0 | 0.0 | 0.00 | 0.00 | 0.00 | 74 | 1013.2 |
| 20260905013000 | 28 | 0 | 0.0 | 0.0 | 0.00 | 0.00 | 0.00 | 74 | 1012.9 |
| 20260905012500 | 28 | 0 | 0.0 | 0.0 | 0.00 | 0.00 | 0.00 | 74 | 1012.9 |
| 20260905012000 | 28 | 0 | 0.0 | 0.0 | 0.00 | 0.00 | 0.00 | 74 | 1012.9 |
| 20260905011500 | 28 | 0 | 0.0 | 0.0 | 0.00 | 0.00 | 0.00 | 74 | 1012.9 |
| 20260905011000 | 28 | 0 | 0.0 | 0.0 | 0.00 | 0.00 | 0.00 | 73 | 1012.9 |
| 20260905010500 | 28 | 0 | 0.0 | 0.0 | 0.00 | 0.00 | 0.00 | 74 | 1012.9 |
| 20260905010000 | 28 | 0 | 0.0 | 0.0 | 0.00 | 0.00 | 0.00 | 74 | 1012.9 |
| 20260905005500 | 28 | 0 | 0.0 | 0.0 | 0.00 | 0.00 | 0.00 | 75 | 1012.9 |
| 20260905005000 | 28 | 0 | 0.0 | 0.0 | 0.00 | 0.00 | 0.00 | 74 | 1012.9 |
| 20260905004500 | 28 | 0 | 0.0 | 0.0 | 0.00 | 0.00 | 0.00 | 74 | 1012.9 |
| 20260905004000 | 29 | 0 | 0.0 | 0.0 | 0.00 | 0.00 | 0.00 | 74 | 1012.9 |
| 20260905003500 | 29 | 0 | 0.0 | 0.0 | 0.00 | 0.00 | 0.00 | 74 | 1012.9 |
| 20260905003000 | 29 | 0 | 0.0 | 0.0 | 0.00 | 0.00 | 0.00 | 75 | 1012.9 |
| 20260905002500 | 29 | 0 | 0.0 | 1.6 | 0.00 | 0.00 | 0.00 | 74 | 1012.9 |
| 20260905002000 | 30 | 0 | 0.0 | 1.6 | 0.00 | 0.00 | 0.00 | 72 | 1012.9 |
| 20260905001500 | 30 | 0 | 0.0 | 0.0 | 0.00 | 0.00 | 0.00 | 67 | 1012.9 |
| 20260905001000 | 31 | 0 | 0.0 | 0.0 | 0.00 | 0.00 | 0.00 | 67 | 1012.9 |
| 20260905000500 | 31 | 0 | 0.0 | 0.0 | 0.00 | 0.00 | 0.00 | 66 | 1012.9 |
| 20260905000000 | 31 | 0 | 0.0 | 0.0 | 0.00 | 0.00 | 0.00 | 65 | 1012.9 |
| 20260904235500 | 31 | 0 | 0.0 | 0.0 | 0.00 | 0.00 | 0.00 | 63 | 1012.9 |
| 20260904235000 | 31 | 0 | 0.0 | 0.0 | 0.00 | 0.00 | 0.00 | 61 | 1012.9 |
| 20260904234500 | 31 | 0 | 0.0 | 0.0 | 0.00 | 0.00 | 0.00 | 60 | 1012.9 |
| 20260904234000 | 32 | 0 | 0.0 | 0.0 | 0.00 | 0.00 | 0.00 | 60 | 1012.9 |
| 20260904233500 | 32 | 0 | 0.0 | 0.0 | 0.00 | 0.00 | 0.00 | 60 | 1012.9 |
| 20260904233000 | 32 | 0 | 0.0 | 0.0 | 0.00 | 0.00 | 0.00 | 58 | 1012.9 |
| 20260904232500 | 32 | 0 | 0.0 | 0.0 | 0.00 | 0.00 | 0.00 | 57 | 1012.9 |
| 20260904232000 | 32 | 0 | 0.0 | 0.0 | 0.00 | 0.00 | 0.00 | 56 | 1012.9 |
| 20260904231500 | 33 | 0 | 0.0 | 0.0 | 0.00 | 0.00 | 0.00 | 56 | 1012.9 |
| 20260904231000 | 33 | 0 | 0.0 | 0.0 | 0.00 | 0.00 | 0.00 | 55 | 1012.9 |
| 20260904230500 | 33 | 0 | 0.0 | 0.0 | 0.00 | 0.00 | 0.00 | 56 | 1012.9 |
| 20260904230000 | 32 | 0 | 0.0 | 0.0 | 0.00 | 0.00 | 0.00 | 58 | 1012.9 |
| 20260904225500 | 33 | 0 | 0.0 | 0.0 | 0.00 | 0.00 | 0.00 | 56 | 1012.9 |
| 20260904225000 | 33 | 0 | 0.0 | 0.0 | 0.00 | 0.00 | 0.00 | 56 | 1012.9 |